Weather reports worldwide

Advertisment
Lugo/Rozas, Spain (8008): temperature & dewpoint: 18.03.2019 17:00:00 - 24.03.2019 17:00:00 (CET)Lugo/Rozas, Spain (8008): wind speed: 18.03.2019 17:00:00 - 24.03.2019 17:00:00 (CET)Lugo/Rozas, Spain (8008): wind direction: 18.03.2019 17:00:00 - 24.03.2019 17:00:00 (CET)Lugo/Rozas, Spain (8008): reduced air pressure: 18.03.2019 17:00:00 - 24.03.2019 17:00:00 (CET)Lugo/Rozas, Spain (8008): visibility: 18.03.2019 17:00:00 - 24.03.2019 17:00:00 (CET)Lugo/Rozas, Spain (8008): precipitation: 18.03.2019 17:00:00 - 24.03.2019 17:00:00 (CET)
Date & Time tt [°C] td [°C] ff [km/h] ff [kn] dd ppp [hPa] vv [km] rr [mm]
24.03.2019 17:00:00 - - - - - - - -
24.03.2019 16:00:00 18,6 8,8 13 7 NE 1023,3 20 -
24.03.2019 15:00:00 19,0 9,7 8 4 NNE 1023,7 20 0,0
24.03.2019 14:00:00 18,4 10,0 8 4 NE 1024,4 20 0,0
24.03.2019 13:00:00 17,0 8,9 9 5 NE 1025,3 20 -
24.03.2019 12:00:00 15,6 8,3 5 3 N 1026,0 20 0,0
24.03.2019 11:00:00 14,0 7,7 5 3 NE 1026,3 20 0,0
24.03.2019 10:00:00 10,1 6,2 4 2 NNE 1026,9 20 -
24.03.2019 09:00:00 5,6 4,1 2 1 SSE 1027,4 20 0,0
24.03.2019 08:00:00 1,5 0,6 2 1 SSE 1028,0 10 0,0
24.03.2019 07:00:00 1,2 0,0 5 3 SSE 1027,5 13 -
24.03.2019 06:00:00 1,9 0,9 2 1 SSE 1027,3 13 0,0
24.03.2019 05:00:00 2,2 0,9 2 1 W 1027,3 12 0,0
24.03.2019 04:00:00 2,6 1,1 2 1 S 1027,0 12 -
24.03.2019 03:00:00 3,1 1,9 4 2 SSE 1026,8 8 0,0
24.03.2019 02:00:00 3,8 2,3 4 2 S 1026,6 15 0,0
24.03.2019 01:00:00 4,5 2,7 2 1 S 1026,8 17 -
24.03.2019 00:00:00 5,6 2,9 2 1 S 1026,7 20 0,0
23.03.2019 23:00:00 6,8 3,8 4 2 S 1026,4 20 0,0
23.03.2019 22:00:00 8,9 4,1 2 1 SW 1025,9 20 -
23.03.2019 21:00:00 11,3 4,7 4 2 WSW 1025,1 20 0,0
23.03.2019 20:00:00 14,4 4,1 4 2 N 1023,8 20 0,0
23.03.2019 19:00:00 17,0 3,3 13 7 ENE 1022,7 20 -
23.03.2019 18:00:00 19,3 4,2 15 8 ENE 1021,9 20 0,0
23.03.2019 17:00:00 21,6 1,8 8 4 NE 1021,5 20 0,0
23.03.2019 16:00:00 21,9 0,4 5 3 NE 1022,0 20 -
23.03.2019 15:00:00 21,4 1,1 5 3 NE 1022,5 20 0,0
23.03.2019 14:00:00 20,3 3,1 8 4 NW 1023,5 20 0,0
23.03.2019 13:00:00 18,1 5,3 4 2 W 1024,7 20 -
23.03.2019 12:00:00 14,9 6,5 5 3 NW 1025,8 20 0,0
23.03.2019 11:00:00 11,1 5,2 2 1 N 1027,2 20 0,0
23.03.2019 10:00:00 6,5 4,0 4 2 NW 1028,5 19 -
23.03.2019 09:00:00 2,6 1,3 2 1 NW 1029,0 19 0,0
23.03.2019 08:00:00 0,4 -0,5 2 1 SSW 1029,3 10 0,0
23.03.2019 07:00:00 0,3 -0,7 2 1 SE 1029,3 9 -
23.03.2019 06:00:00 0,8 -0,4 0 0 N 1029,3 11 0,0
23.03.2019 05:00:00 1,3 0,1 2 1 SSE 1028,9 17 0,0
23.03.2019 04:00:00 1,5 0,5 4 2 SSE 1029,2 20 -
23.03.2019 03:00:00 2,1 0,5 2 1 SSE 1029,5 20 0,0
23.03.2019 02:00:00 2,6 1,1 2 1 SSE 1029,2 15 0,0
23.03.2019 01:00:00 3,2 1,4 4 2 SSE 1029,3 16 -
23.03.2019 00:00:00 4,4 2,1 2 1 SSE 1029,2 19 0,0
22.03.2019 23:00:00 5,5 3,0 2 1 S 1029,0 20 0,0
22.03.2019 22:00:00 6,9 3,3 4 2 W 1028,7 20 -
22.03.2019 21:00:00 9,2 4,4 2 1 NE 1027,9 20 0,0
22.03.2019 20:00:00 11,4 5,7 2 1 NNE 1026,9 20 0,0
22.03.2019 19:00:00 14,6 6,7 4 2 N 1025,2 20 -
22.03.2019 18:00:00 19,0 1,9 4 2 N 1023,8 20 0,0
22.03.2019 17:00:00 19,7 2,1 5 3 ENE 1023,9 20 0,0
22.03.2019 16:00:00 19,7 3,0 5 3 NNW 1024,3 20 -
22.03.2019 15:00:00 19,8 2,6 8 4 SSW 1024,7 20 0,0
22.03.2019 14:00:00 18,8 1,3 8 4 SSW 1025,6 20 0,0
22.03.2019 13:00:00 17,1 6,0 5 3 ENE 1026,2 25 -
22.03.2019 12:00:00 12,8 5,9 4 2 E 1027,6 20 0,0
22.03.2019 11:00:00 5,9 4,4 4 2 ENE 1029,5 19 0,0
22.03.2019 10:00:00 2,2 1,9 4 2 NW 1030,0 0,3 -
22.03.2019 09:00:00 0,3 -0,3 2 1 ESE 1030,0 0,4 0,0
22.03.2019 08:00:00 0,2 -0,4 2 1 WSW 1029,4 0,1 0,0
22.03.2019 07:00:00 0,5 0,2 2 1 W 1028,7 0,3 -
22.03.2019 06:00:00 0,2 -0,2 2 1 S 1028,7 0,1 0,0
22.03.2019 05:00:00 0,6 -0,3 2 1 S 1028,3 8 0,0
22.03.2019 04:00:00 0,9 -0,1 2 1 SSE 1028,4 13 -
22.03.2019 03:00:00 1,3 0,0 0 0 N 1028,4 20 0,0
22.03.2019 02:00:00 1,8 0,6 2 1 SW 1028,2 11 0,0
22.03.2019 01:00:00 2,6 1,7 5 3 SSE 1028,4 9 -
22.03.2019 00:00:00 3,3 2,3 5 3 SSE 1028,3 11 0,0
21.03.2019 23:00:00 4,6 2,8 2 1 SSW 1027,8 13 0,0
21.03.2019 22:00:00 6,4 4,2 2 1 NNW 1027,1 19 -
21.03.2019 21:00:00 7,4 4,9 4 2 NNE 1026,9 20 0,0
21.03.2019 20:00:00 9,1 5,5 11 6 NE 1026,3 20 0,0
21.03.2019 19:00:00 11,3 5,8 9 5 NE 1025,6 20 -
21.03.2019 18:00:00 13,7 6,5 9 5 NE 1025,1 20 0,0
21.03.2019 17:00:00 15,8 7,0 8 4 NE 1024,7 20 0,0
21.03.2019 16:00:00 16,1 6,2 11 6 NE 1025,4 20 -
21.03.2019 15:00:00 16,4 2,8 9 5 NE 1026,1 20 0,0
21.03.2019 14:00:00 15,6 2,4 11 6 ENE 1027,1 20 0,0
21.03.2019 13:00:00 14,4 1,0 8 4 N 1028,2 25 -
21.03.2019 12:00:00 13,0 1,6 5 3 N 1028,6 20 0,0
21.03.2019 11:00:00 10,8 2,4 4 2 ENE 1029,5 19 0,0
21.03.2019 10:00:00 7,7 2,0 4 2 E 1029,9 25 -
21.03.2019 09:00:00 4,4 2,3 2 1 SE 1030,6 20 0,0
21.03.2019 08:00:00 1,1 0,1 4 2 SSE 1031,4 15 0,0
21.03.2019 07:00:00 1,6 0,9 4 2 S 1031,1 25 -
21.03.2019 06:00:00 1,1 0,5 5 3 E 1030,9 18 0,0
21.03.2019 05:00:00 0,7 -0,2 4 2 ESE 1030,9 8 0,0
21.03.2019 04:00:00 1,2 0,3 2 1 SSE 1031,0 6 -
21.03.2019 03:00:00 2,2 1,6 4 2 ENE 1031,0 10 0,0
21.03.2019 02:00:00 1,5 0,6 2 1 NW 1031,2 4,7 0,0
21.03.2019 01:00:00 2,9 1,1 2 1 SE 1031,2 9 -
21.03.2019 00:00:00 4,9 3,4 2 1 N 1030,7 16 0,0
20.03.2019 23:00:00 5,2 4,0 2 1 N 1030,7 18 0,0
20.03.2019 22:00:00 5,8 4,1 2 1 ENE 1030,5 20 -
20.03.2019 21:00:00 7,1 5,1 4 2 NW 1030,5 20 0,0
20.03.2019 20:00:00 7,9 5,5 5 3 NNE 1030,0 20 0,0
20.03.2019 19:00:00 9,5 5,7 9 5 NE 1029,5 20 -
20.03.2019 18:00:00 11,1 6,0 15 8 NE 1028,7 20 0,0
20.03.2019 17:00:00 12,7 6,3 16 9 NE 1028,4 20 0,0
20.03.2019 16:00:00 15,3 7,6 8 4 NNE 1028,2 20 -
20.03.2019 15:00:00 15,9 7,4 9 5 N 1028,1 20 0,0
20.03.2019 14:00:00 15,0 6,8 11 6 NE 1028,9 20 0,0
20.03.2019 13:00:00 14,3 5,6 13 7 NE 1029,8 25 -
20.03.2019 12:00:00 12,5 4,2 18 10 ENE 1030,8 20 0,0
20.03.2019 11:00:00 12,0 4,7 9 5 NE 1031,2 20 0,0
20.03.2019 10:00:00 9,9 5,5 11 6 NE 1031,7 25 -
20.03.2019 09:00:00 6,5 5,0 11 6 ENE 1032,3 20 0,0
20.03.2019 08:00:00 2,0 1,3 2 1 E 1032,6 16 0,0
20.03.2019 07:00:00 1,2 0,6 4 2 S 1032,7 25 -
20.03.2019 06:00:00 1,5 0,8 2 1 SSE 1032,2 17 0,0
20.03.2019 05:00:00 1,8 0,8 4 2 S 1032,3 20 0,0
20.03.2019 04:00:00 2,8 1,6 4 2 WSW 1032,2 14 -
20.03.2019 03:00:00 4,1 3,5 8 4 ENE 1032,5 19 0,0
20.03.2019 02:00:00 4,4 2,9 2 1 NNW 1032,7 20 0,0
20.03.2019 01:00:00 5,5 4,1 4 2 N 1032,5 20 -
20.03.2019 00:00:00 6,1 4,4 4 2 NNE 1032,5 20 0,0
19.03.2019 23:00:00 6,6 4,8 4 2 NNW 1032,5 20 0,0
19.03.2019 22:00:00 6,5 5,0 4 2 N 1032,4 20 -
19.03.2019 21:00:00 6,6 4,8 5 3 NNE 1032,1 20 0,0
19.03.2019 20:00:00 7,5 4,8 8 4 NE 1031,2 20 0,0
19.03.2019 19:00:00 9,1 4,9 11 6 NE 1030,3 20 -
19.03.2019 18:00:00 9,6 5,0 13 7 NE 1030,1 20 0,0
19.03.2019 17:00:00 10,2 5,2 16 9 ENE 1030,2 20 0,0
19.03.2019 16:00:00 11,6 6,1 9 5 NE 1029,8 20 -
19.03.2019 15:00:00 11,7 5,8 8 4 NNE 1029,8 20 0,0
19.03.2019 14:00:00 11,7 4,2 13 7 ENE 1030,4 20 0,0
19.03.2019 13:00:00 11,9 3,9 9 5 ENE 1030,7 20 -
19.03.2019 12:00:00 11,2 3,7 16 9 ENE 1031,2 20 0,0
19.03.2019 11:00:00 8,4 5,1 13 7 ENE 1031,8 20 0,0
19.03.2019 10:00:00 8,3 5,2 9 5 E 1031,3 20 -
19.03.2019 09:00:00 5,1 4,8 2 1 WSW 1031,8 17 0,0
19.03.2019 08:00:00 3,1 2,7 4 2 WSW 1031,8 18 0,0
19.03.2019 07:00:00 2,2 1,5 4 2 SSE 1031,4 20 -
19.03.2019 06:00:00 2,5 1,3 2 1 S 1031,6 17 0,0
19.03.2019 05:00:00 4,1 2,4 2 1 SSW 1031,1 20 0,0
19.03.2019 04:00:00 4,4 3,1 0 0 N 1031,1 20 -
19.03.2019 03:00:00 4,2 3,3 2 1 N 1031,7 20 0,0
19.03.2019 02:00:00 4,3 3,0 2 1 NE 1032,1 20 0,0
19.03.2019 01:00:00 5,6 3,6 4 2 NE 1031,6 20 -
19.03.2019 00:00:00 5,0 4,1 2 1 N 1032,5 20 0,0
18.03.2019 23:00:00 3,6 2,4 2 1 N 1032,8 20 0,0
18.03.2019 22:00:00 4,5 2,7 2 1 E 1032,3 20 -
18.03.2019 21:00:00 5,2 3,0 4 2 NE 1032,0 20 0,0
18.03.2019 20:00:00 6,5 3,1 5 3 NE 1031,6 20 0,0
18.03.2019 19:00:00 8,5 2,7 13 7 NE 1030,4 20 -
18.03.2019 18:00:00 9,8 3,3 9 5 NE 1029,6 20 0,0
18.03.2019 17:00:00 11,5 2,8 11 6 NE 1029,0 20 0,0

tt = temperature
td = dewpoint
ff = wind speed
dd = wind direction
ppp = reduced air pressure
vv = visibility
rr = precipitation

Next stations